Simultaneous Nadir Overpasses (SNOs) Predictions

Prediction of SNOs between GOES-14 and NOAA-20 Satellite Orbit:

Table of predicted SNOs for the next 14.0 days since TLE Epoch: 1/31/2020
Index Date Time (GOES-14) GOES-14 Lat,Lon NOAA-20 Lat,Lon Distance(km) Time Diff (sec)
1 01/31/2020 20:08:27 -0.03,-104.05 0.59,-101.28 316.13 80
2 02/02/2020 08:30:16 0.03,-104.30 0.55,-106.56 257.97 80
3 02/03/2020 08:14:13 0.03,-104.30 -0.50,-102.04 258.24 80
4 02/04/2020 20:36:09 -0.03,-104.05 -0.75,-107.33 373.30 80
5 02/05/2020 20:14:45 -0.04,-104.04 0.24,-102.79 142.39 80
6 02/07/2020 08:36:34 0.04,-104.28 0.90,-108.07 432.82 80
7 02/08/2020 08:20:30 0.04,-104.27 -0.15,-103.55 83.14 80
8 02/10/2020 20:23:42 -0.04,-104.02 -0.10,-104.31 32.52 80
9 02/11/2020 20:02:18 -0.04,-104.01 0.89, -99.77 483.06 80
10 02/13/2020 08:24:08 0.04,-104.25 0.19,-105.06 92.41 80
11 02/14/2020 08:08:04 0.04,-104.24 -0.80,-100.53 423.80 80




NCC Satellite Simultaneous Nadir Overpasses (SNOs) Prediction Service
